Juneau, AK

9:48 PM AKDT on May 22, 2018 (GMT -0800)
Juneau International

Weather History for PAJN - September, 2013

Change the Weather History Date:

Monday, September 23, 2013

  Actual Average Record
Temperature  
Mean Temperature 51 °F -  
Max Temperature 56 °F 54 °F 64 °F (1995)
Min Temperature 46 °F 41 °F 26 °F (1972)
Degree Days  
Heating Degree Days 14    
Month to date heating degree days 258  
Moisture  
Dew Point 43 °F    
Average Humidity 73    
Maximum Humidity 86    
Minimum Humidity 59    
Precipitation  
Precipitation T in - - ()
Month to date precipitation 6.92  
Year to date precipitation 47.83  
Sea Level Pressure  
Sea Level Pressure 29.41 in    
Wind  
Wind Speed 15 mph (ESE)    
Max Wind Speed 26 mph    
Max Gust Speed 34 mph    
Visibility 10 miles    
Events Rain    
Averages and records for this station are not official NWS values.
T = Trace of Precipitation, MM = Missing Value Source: NWS Daily Summary

Daily Weather History Graph

Daily Weather History Graph

Search for Another Location

Airport or City:

Astronomy

Sep. 23, 2013 Rise Set
Actual Time 6:46 AM AKDT 6:53 PM AKDT
Civil Twilight 6:06 AM AKDT 7:33 PM AKDT
Nautical Twilight 5:19 AM AKDT 8:20 PM AKDT
Astronomical Twilight 4:28 AM AKDT 9:10 PM AKDT
Moon 8:25 PM AKDT 12:16 PM AKDT
Length of Visible Light 13h 26m
Length of Day
12h 07m
Waning Gibbous, 80% of the Moon is Illuminated
Sep 23
Waning Gibbous
Sep 26
Last Quarter
Oct 4
New
Oct 11
First Quarter
Oct 18
Full

Hourly Weather History & Observations

Time (AKDT) Temp. Dew Point Humidity Pressure Visibility Wind Dir Wind Speed Gust Speed Precip Events Conditions
12:53 AM 48.9 °F 45.0 °F 86% 29.20 in 10.0 mi ESE 13.8 mph - 0.00 in Rain Light Rain
1:53 AM 48.0 °F 46.0 °F 93% 29.21 in 10.0 mi East 11.5 mph - 0.00 in   Overcast
2:53 AM 48.0 °F 46.0 °F 93% 29.23 in 10.0 mi East 8.1 mph - 0.00 in Rain Light Rain
3:53 AM 48.0 °F 45.0 °F 89% 29.25 in 10.0 mi East 9.2 mph - 0.00 in Rain Light Rain
4:53 AM 48.0 °F 44.1 °F 86% 29.26 in 10.0 mi East 11.5 mph - 0.00 in   Mostly Cloudy
5:53 AM 48.0 °F 44.1 °F 86% 29.28 in 10.0 mi East 10.4 mph - 0.00 in Rain Light Rain
6:53 AM 48.0 °F 44.1 °F 86% 29.29 in 10.0 mi East 10.4 mph - 0.00 in   Mostly Cloudy
7:53 AM 46.9 °F 43.0 °F 86% 29.31 in 10.0 mi East 11.5 mph - N/A   Mostly Cloudy
8:53 AM 50.0 °F 45.0 °F 83% 29.31 in 10.0 mi East 12.7 mph - N/A   Mostly Cloudy
9:53 AM 53.1 °F 44.1 °F 71% 29.32 in 10.0 mi ESE 20.7 mph - N/A   Mostly Cloudy
10:53 AM 54.0 °F 43.0 °F 66% 29.34 in 10.0 mi ESE 19.6 mph 28.8 mph N/A   Mostly Cloudy
11:53 AM 55.0 °F 41.0 °F 59% 29.37 in 10.0 mi ESE 21.9 mph 31.1 mph N/A   Mostly Cloudy
12:53 PM 54.0 °F 41.0 °F 62% 29.40 in 10.0 mi ESE 21.9 mph 29.9 mph 0.00 in Rain Light Rain
1:53 PM 52.0 °F 42.1 °F 69% 29.43 in 10.0 mi ESE 15.0 mph 26.5 mph 0.00 in Rain Light Rain
2:53 PM 52.0 °F 43.0 °F 71% 29.46 in 10.0 mi SE 18.4 mph 24.2 mph 0.00 in Rain Light Rain
3:53 PM 51.1 °F 43.0 °F 74% 29.48 in 10.0 mi ESE 17.3 mph - 0.00 in   Overcast
4:53 PM 51.1 °F 43.0 °F 74% 29.50 in 10.0 mi ESE 17.3 mph - N/A   Overcast
5:53 PM 51.1 °F 42.1 °F 71% 29.52 in 10.0 mi ESE 16.1 mph - N/A   Overcast
6:53 PM 51.1 °F 42.1 °F 71% 29.54 in 10.0 mi SE 19.6 mph - 0.00 in   Overcast
7:53 PM 50.0 °F 42.1 °F 74% 29.57 in 10.0 mi SE 17.3 mph 25.3 mph 0.00 in   Overcast
8:53 PM 48.9 °F 43.0 °F 80% 29.60 in 10.0 mi ESE 16.1 mph - N/A   Overcast
9:53 PM 48.9 °F 43.0 °F 80% 29.63 in 10.0 mi ESE 10.4 mph - N/A   Overcast
10:53 PM 48.9 °F 43.0 °F 80% 29.65 in 10.0 mi ESE 11.5 mph - N/A   Overcast
11:53 PM 48.9 °F 43.0 °F 80% 29.68 in 10.0 mi ESE 11.5 mph - N/A   Overcast